Location: ??
(34.7707°N, 135.6540°E)
Time: 04:31:32
(UTC+00:00)

ADEOS II - Pass Details

Date: 09 April 2020
Orbit: 799 x 801 km, 98.5° (Epoch: 05 June)

Event Time Altitude Azimuth Distance (km) Brightness Sun altitude
Rises 17:25:48 0° 11° (N) 3,315 6.0 -35.0°
Reaches altitude 10° 17:28:09 10° 10° (N) 2,380 5.1 -34.6°
Enters shadow 17:30:55 32° 7° (N) 1,340 3.5 -34.2°
